TOP > 外国特許検索

外国特許検索

表示件数 詳細検索
特許の状態
出願国

リセット

該当件数 5384件

No. 出願番号
公報番号
出願国
発明の名称
掲載日
更新日
データ提供機関
701 2015JP050846 WO 2015108087 世界知的所有権機関(WIPO) NOISE IMPARTING DEVICE AND NOISE IMPARTING METHOD 2015/11/26 2015/11/26 情報・システム研究機構 国立情報学研究所
702 2015JP055356 WO 2015133344 世界知的所有権機関(WIPO) MODE MULTIPLEXER 2015/11/26 2015/11/26 横浜国立大学
703 2015JP053833 WO 2015129466 世界知的所有権機関(WIPO) COPPER NANOPARTICLES AND PRODUCTION METHOD FOR SAME, COPPER NANOPARTICLE FLUID DISPERSION, COPPER NANOINK, COPPER NANOPARTICLE PRESERVATION METHOD, AND COPPER NANOPARTICLE SINTERING METHOD 2015/11/26 2015/11/26 関西大学
704 2015JP055652 WO 2015129813 世界知的所有権機関(WIPO) DEUTERATION METHOD AND DEUTERATION CATALYST 2015/11/26 2015/11/26 長崎大学
705 2015JP055434 WO 2015129757 世界知的所有権機関(WIPO) NON-RECIPROCAL TRANSMISSION LINE DEVICE 2015/11/26 2015/11/26 科学技術振興機構(JST)
706 2015JP059257 WO 2015147107 世界知的所有権機関(WIPO) INHIBITORY EFFECT OF LOW MOLECULAR WEIGHT COMPOUND ON CANCER AND FIBROSIS 2015/11/26 2015/11/26 鳥取大学
707 2015JP057870 WO 2015151801 世界知的所有権機関(WIPO) METHOD AND KIT FOR QUANTIFYING CARDIOLIPIN 2015/11/26 2015/11/26 滋賀医科大学
708 2015JP052350 WO 2015115478 世界知的所有権機関(WIPO) CANCER DETECTION METHOD EMPLOYING BIOLOGICAL TISSUE FRAGMENT, AND METHOD FOR SUSTAINING CELLS IN BIOLOGICAL TISSUE FRAGMENT EX VIVO 2015/11/26 2015/11/26 弘前大学
709 2015JP060783 WO 2015156264 世界知的所有権機関(WIPO) NOVEL GLUCOSE DERIVATIVE, AND CELL IMAGING METHOD AND IMAGING AGENT USING SAID DERIVATIVE 2015/11/26 2015/11/26 弘前大学
710 2014JP077635 WO 2015060206 世界知的所有権機関(WIPO) METHOD FOR DETECTING ATOPIC KERATOCONJUNCTIVITIS 2015/11/26 2015/11/26 佐賀大学
711 2015JP052727 WO 2015115610 世界知的所有権機関(WIPO) EXPRESSION CASSETTE 2015/11/26 2015/11/26 徳島大学
712 2015JP056232 WO 2015133484 世界知的所有権機関(WIPO) KIDNEY DISEASE MARKER, AND USE THEREOF 2015/11/26 2015/11/26 徳島大学
713 2014JP077036 WO 2015053353 世界知的所有権機関(WIPO) PEPTIDE SPECIFICALLY BINDING TO IGY AND METHOD FOR PURIFYING IGY USING SAME 2015/11/26 2015/11/26 鹿児島大学
714 2014JP076991 WO 2015053338 世界知的所有権機関(WIPO) CATIONIC PEPTIDE AND PHARMACEUTICAL COMPOSITION CONTAINING SAME 2015/11/26 2015/11/26 東京理科大学
715 2014JP081969 WO 2015083736 世界知的所有権機関(WIPO) DRUG FOR THE TREATMENT OF CHOLESTEROL ACCUMULATION DISORDERS, AND SCREENING METHOD FOR SAME 2015/11/26 2015/11/26 熊本大学
716 2015JP053607 WO 2015125662 世界知的所有権機関(WIPO) METHOD FOR PROMOTING DIFFERENTIATION OF STEM CELLS USING AMINO ACID REFORMULATED MEDIUM, STEM CELLS PROCESSED USING SAID METHOD, AND MEDIUM 2015/11/26 2015/11/26 熊本大学
717 2014JP082691 WO 2015087916 世界知的所有権機関(WIPO) TRANSGENIC NON-HUMAN MAMMAL EXPRESSING HUMAN MMP2 新技術説明会 2015/11/26 2015/11/26 三重大学
718 2015JP054324 WO 2015122538 世界知的所有権機関(WIPO) ALCOHOL MANUFACTURING METHOD 新技術説明会 2015/11/26 2015/11/26 三重大学
719 2015JP059854 WO 2015147318 世界知的所有権機関(WIPO) ALCOHOL PRODUCTION METHOD 新技術説明会 2015/11/26 2015/11/26 三重大学
720 2014JP083278 WO 2015093485 世界知的所有権機関(WIPO) METHOD FOR CAUSING CHANGE IN 19F CHEMICAL SHIFT BY PHOTOCROSSLINKING FORMATION 2015/11/26 2015/11/26 北陸先端科学技術大学院大学
721 2015JP051194 WO 2015115221 世界知的所有権機関(WIPO) MEASURING DEVICE AND MEASURING METHOD 2015/11/26 2015/11/26 埼玉医科大学
722 2015JP059207 WO 2015151972 世界知的所有権機関(WIPO) ULTRASONIC IMAGING SYSTEM 新技術説明会 2015/11/26 2015/11/26 群馬大学
723 2015JP052077 WO 2015115383 世界知的所有権機関(WIPO) LARYNGEAL MASK 2015/11/26 2015/11/26 岡山大学
724 2015JP053572 WO 2015122391 世界知的所有権機関(WIPO) QUANTUM DOT FLUORESCENCE ENHANCED IMMUNOASSAY 2015/11/26 2015/11/26 静岡大学
725 2015JP000559 WO 2015118884 世界知的所有権機関(WIPO) CHARGE MODULATION ELEMENT AND SOLID-STATE IMAGING DEVICE 2015/11/26 2015/11/26 静岡大学
726 2015JP053370 WO 2015119243 世界知的所有権機関(WIPO) IMAGE SENSOR 2015/11/26 2015/11/26 静岡大学
727 13193347 2708524 欧州特許庁(EPO) Polyisocyanide derivative having controlled helical main chain structure 2015/11/26 2015/11/26 科学技術振興機構(JST)
728 2015JP053615 WO 2015125665 世界知的所有権機関(WIPO) PHOTODETECTION DEVICE, PHOTODETECTION METHOD AND PROGRAM 新技術説明会 2015/11/26 2015/11/26 東京農工大学
729 2015JP055572 WO 2015146454 世界知的所有権機関(WIPO) ELECTRODE CATALYST AND METHOD FOR PRODUCING ELECTRODE CATALYST 2015/11/26 2015/11/26 山梨大学
730 2015JP056630 WO 2015146542 世界知的所有権機関(WIPO) EXTRA-FINE MULTIFILAMENT YARN AND MANUFACTURING MEANS THEREFOR 2015/11/26 2015/11/26 山梨大学
731 2014JP080859 WO 2015076359 世界知的所有権機関(WIPO) PROTEASOME-INHIBITING COMPOUND 2015/11/26 2015/11/26 北海道大学
732 2014JP084034 WO 2015098907 世界知的所有権機関(WIPO) LIPID MEMBRANE STRUCTURE HAVING INTRANUCLEAR LOCALIZATION PROPERTY 2015/11/26 2015/11/26 北海道大学
733 2015JP053463 WO 2015119268 世界知的所有権機関(WIPO) LIGAND, MACROMOLECULAR COMPLEX, AND PRODUCTION METHOD FOR MACROMOLECULAR COMPLEX 2015/11/26 2015/11/26 北海道大学
734 2015JP056177 WO 2015133460 世界知的所有権機関(WIPO) HIGH-TEMPERATURE RESISTANT AUSTENITIC STAINLESS STEEL 2015/11/26 2015/11/26 北海道大学
735 2015JP002204 WO 2015162929 世界知的所有権機関(WIPO) LATENT HEAT STORAGE BODY, LATENT HEAT STORAGE BODY MANUFACTURING METHOD AND HEAT EXCHANGE MATERIAL 2015/11/26 2015/11/26 北海道大学
736 2014JP082997 WO 2015093407 世界知的所有権機関(WIPO) METAL-BASED STRUCTURE OR NANOPARTICLES CONTAINING HYDROGEN, AND METHOD FOR PRODUCING SAME 2015/11/26 2015/11/26 横浜市立大学
737 2014JP082086 WO 2015083779 世界知的所有権機関(WIPO) COFFIN-SIRIS SYNDROME DETECTION METHOD 2015/11/26 2015/11/26 横浜市立大学
738 2015JP051226 WO 2015111544 世界知的所有権機関(WIPO) INCUBATOR, CELL CULTURE SYSTEM PROVIDED WITH SAME, AND METHOD FOR SUPPLYING HUMIDIFYING WATER 2015/11/26 2015/11/26 横浜市立大学
739 2015JP055695 WO 2015129822 世界知的所有権機関(WIPO) METHOD FOR FABRICATING CELL AGGREGATE FOR SELF-ORGANIZATION 2015/11/26 2015/11/26 横浜市立大学
740 2015JP053041 WO 2015119132 世界知的所有権機関(WIPO) METHOD FOR PREDICTING PROGRESSION OF PRE-CANCEROUS LESION 2015/11/26 2015/11/26 横浜市立大学
741 2015JP055765 WO 2015137151 世界知的所有権機関(WIPO) SUPPORT TOOL AND BIOLOGICAL INFORMATION ACQUISITION SYSTEM 2015/11/26 2015/11/26 横浜市立大学
742 2015JP054277 WO 2015137056 世界知的所有権機関(WIPO) PREVENTION OR TREATMENT OF PATENT DUCTUS ARTERIOSUS BY GLUTAMIC ACID 2015/11/26 2015/11/26 横浜市立大学
743 2015JP057287 WO 2015137441 世界知的所有権機関(WIPO) ANTI-MYRISTOYLATED PROTEIN ANTIBODY OR ANTIGEN-BINDING FRAGMENT THEREOF, MYRISTOYLATED PROTEIN DETECTION KIT, DRUG, GENE, AND VECTOR 2015/11/26 2015/11/26 東京工業大学
744 2015JP057113 WO 2015137380 世界知的所有権機関(WIPO) DROPLET PRODUCING DEVICE, DROPLET PRODUCING METHOD, LIPOSOME PRODUCING METHOD, FIXTURE, AND DROPLET PRODUCING KIT 新技術説明会 2015/11/26 2015/11/26 東京工業大学
745 2015JP057911 WO 2015141681 世界知的所有権機関(WIPO) MULTILEVEL POWER CONVERTER AND METHOD FOR CONTROLLING MULTILEVEL POWER CONVERTER 2015/11/26 2015/11/26 東京工業大学
746 2015JP057907 WO 2015141680 世界知的所有権機関(WIPO) POWER CONVERTER 2015/11/26 2015/11/26 東京工業大学
747 2015JP057302 WO 2015137449 世界知的所有権機関(WIPO) METHOD FOR PREPARING TRIACYLGLYCEROL HIGH-PRODUCTIVITY ALGAE 2015/11/26 2015/11/26 東京工業大学
748 2015JP061796 WO 2015166816 世界知的所有権機関(WIPO) MICRO METAL STRUCTURE 新技術説明会 2015/11/26 2015/11/26 東京工業大学
749 2015JP053303 WO 2015125625 世界知的所有権機関(WIPO) DENTAL MEMBER 新技術説明会 2015/11/26 2015/11/26 東北大学
750 2015JP055405 WO 2015137121 世界知的所有権機関(WIPO) RIBONUCLEOSIDE ANALOG HAVING AZIDE GROUPS AND METHOD FOR PRODUCING SAME, AND CHIMERA-TYPE OLIGORIBONUCLEOTIDE ANALOG CONTAINING TRIAZOLE LINKING-TYPE OLIGORIBONUCLEOTIDE FORMED FROM SUCH ANALOG 2015/11/26 2015/11/26 東北大学
751 2015JP062325 WO 2015163389 世界知的所有権機関(WIPO) SLIDING METHOD, PRODUCTION METHOD FOR SLIDING STRUCTURE, SLIDING STRUCTURE, AND DEVICE 2015/11/26 2015/11/26 東北大学
752 2015JP054552 WO 2015125849 世界知的所有権機関(WIPO) METHOD FOR MASS-PRODUCING BACTERIOCHLOROPHYL b, AND PRODUCING STRAIN 2015/11/25 2015/11/25 立命館大学
753 2014JP084726 WO 2015099189 世界知的所有権機関(WIPO) NOBLE METAL RECOVERY METHOD 新技術説明会 2015/11/25 2015/11/25 大阪府立大学
754 2014JP080030 WO 2015102068 世界知的所有権機関(WIPO) WATER-ABSORBING MATERIAL AND PROCESS FOR MANUFACTURING SAME 2015/11/25 2015/11/25 千葉大学
755 2015JP051151 WO 2015108172 世界知的所有権機関(WIPO) IRON(II) ION DETECTION AGENT AND DETECTION METHOD USING SAME 2015/11/25 2015/11/25 岐阜薬科大学
756 2015JP052766 WO 2015115622 世界知的所有権機関(WIPO) ELECTRIC FORCE AND MAGNETIC FORCE MICROSCOPE AND SIMULTANEOUS ELECTRIC FIELD AND MAGNETIC FIELD MEASUREMENT METHOD 2015/11/25 2015/11/25 秋田大学
757 2014JP081664 WO 2015129118 世界知的所有権機関(WIPO) CHARACTERISTIC MEASUREMENT DEVICE, TRANSIENT ABSORPTION RESPONSE MEASUREMENT DEVICE AND TRANSIENT ABSORPTION RESPONSE MEASUREMENT METHOD 2015/11/20 2015/11/20 埼玉大学
758 2014JP073231 WO 2015033972 世界知的所有権機関(WIPO) PEARL NUCLEUS AND PEARL NUCLEUS COATING AGENT 2015/11/20 2015/11/20 四国TLO
759 2015JP002175 WO 2015166645 世界知的所有権機関(WIPO) YEAST HAVING XYLOSE ASSIMILATION ABILITY AND ETHANOL PRODUCTION ABILITY 新技術説明会 2015/11/20 2015/11/20 山口大学
760 2015JP000138 WO 2015107888 世界知的所有権機関(WIPO) NOVEL METHOD FOR LABELLING CANCERIZATION-CAUSING CELL IN STEM CELLS, AND THERAPY METHOD 2015/11/20 2015/11/20 鹿児島大学
761 2015JP062701 WO 2015166912 世界知的所有権機関(WIPO) DETECTION METHOD FOR GENETIC DISEASE 2015/11/20 2015/11/20 鹿児島大学
762 2014JP084594 WO 2015099147 世界知的所有権機関(WIPO) VECTOR POTENTIAL GENERATION DEVICE, VECTOR POTENTIAL TRANSFORMER, SHIELD PERMEATION DEVICE, NON-CONTACT SPACE ELECTRIC FIELD GENERATION DEVICE, NULL CIRCUIT, AND STRUCTURE FOR VECTOR POTENTIAL GENERATION DEVICE 2015/11/20 2015/11/20 岩手大学
763 2015JP051156 WO 2015105201 世界知的所有権機関(WIPO) METHOD OF PRODUCING MICROGLIAL CELLS 2015/11/20 2015/11/20 九州大学
764 2014JP076768 WO 2015155904 世界知的所有権機関(WIPO) GENE-KNOCKOUT PIG 2015/11/20 2015/11/20 自治医科大学
765 2015JP000721 WO 2015129198 世界知的所有権機関(WIPO) INDUSTRIAL PRODUCT DESIGN SYSTEM, METHOD, PROGRAM, AND COMPUTER-READABLE RECORDING MEDIUM 2015/11/20 2015/11/20 広島大学
766 2015JP059155 WO 2015147068 世界知的所有権機関(WIPO) RADIAL-GAP-TYPE SUPERCONDUCTING SYNCHRONOUS MACHINE, MAGNETIZATION DEVICE, AND MAGNETIZATION METHOD 2015/11/20 2015/11/20 東京海洋大学
767 2015JP001747 WO 2015146184 世界知的所有権機関(WIPO) METHOD FOR PRODUCING FISH GAMETES FOR FARMED FISH PRODUCTION USING SURROGATE PARENT FISH, APPLICABLE TO SURROGATE PARENT FISH OF DIFFERENT SPECIES 2015/11/20 2015/11/20 東京海洋大学
768 102135306 I559255 台湾 Heteroptics analysis device, heteroptically-altered image generating device for generating heteroptics to create perception approximating original image, heteroptics analysis method, and program 2015/11/19 2016/12/12 科学技術振興機構(JST)
769 103126689 I548221 台湾 Reconfigurable delay circuit, delay monitor circuit using said delay circuit, variation correction circuit, variation measurement method, and variation correction method 2015/11/19 2016/10/14 科学技術振興機構(JST)
770 2015JP051905 WO 2015111722 世界知的所有権機関(WIPO) CELL-SEEDING AND -CULTURING DEVICE 新技術説明会 2015/11/19 2015/11/19 科学技術振興機構(JST)
771 2015JP000371 WO 2015133056 世界知的所有権機関(WIPO) SECURITY MARK, AUTHENTICATIONG METHOD THEREFOR, AUTHENTICATION DEVICE AND MANUFACTURING METHOD AS WELL AS SECURITY MARK INK AND MANUFACTURING METHOD THEREFOR 2015/11/19 2015/11/19 科学技術振興機構(JST)
772 2015JP000193 WO 2015107907 世界知的所有権機関(WIPO) DIAMOND CRYSTAL, DIAMOND ELEMENT, MAGNETIC SENSOR, MAGNETIC MEASUREMENT DEVICE, AND METHOD FOR MANUFACTURING SENSOR ARRAY 2015/11/19 2015/11/19 科学技術振興機構(JST)
773 2015JP000929 WO 2015162835 世界知的所有権機関(WIPO) SUPPLY/DEMAND BALANCING SYSTEM, SWITCHING SYSTEM, SUPPLY/DEMAND MANAGEMENT SYSTEM, SWITCHING METHOD, SUPPLY/DEMAND BALANCING METHOD, SUPPLY/DEMAND MANAGEMENT METHOD, SWITCHING PROGRAM, AND SUPPLY/DEMAND MANAGEMENT PROGRAM 2015/11/19 2015/11/19 科学技術振興機構(JST)
774 2015JP056635 WO 2015137246 世界知的所有権機関(WIPO) METHOD FOR PREPARING TEST SAMPLE FOR CRYSTAL STRUCTURE ANALYSIS, AND METHOD FOR DETERMINING MOLECULAR STRUCTURE OF ORGANIC COMPOUND HAVING FUNCTIONAL GROUP 2015/11/19 2015/11/19 科学技術振興機構(JST)
775 2015JP056694 WO 2015137256 世界知的所有権機関(WIPO) TRANSISTOR USING PIEZORESISTOR AS CHANNEL, AND ELECTRONIC CIRCUIT 2015/11/19 2015/11/19 科学技術振興機構(JST)
776 2015JP001669 WO 2015146153 世界知的所有権機関(WIPO) METHOD FOR INTRACELLULAR INTRODUCTION OF OBJECT 2015/11/19 2015/11/19 科学技術振興機構(JST)
777 2015JP062233 WO 2015163365 世界知的所有権機関(WIPO) COMBINED-BLADE-TYPE OPEN FLOW PATH DEVICE AND JOINED BODY THEREOF 2015/11/19 2015/11/19 科学技術振興機構(JST)
778 2015JP057015 WO 2015137339 世界知的所有権機関(WIPO) SOLID CATALYST FOR HYDRIDE ISOMERIZATION REACTION IN AN AQUEOUS MEDIUM 2015/11/19 2015/11/19 科学技術振興機構(JST)
779 2015JP057688 WO 2015141620 世界知的所有権機関(WIPO) METHOD FOR PRODUCING THIN-FILM SOLAR CELL, AND THIN-FILM SOLAR CELL 2015/11/19 2015/11/19 科学技術振興機構(JST)
780 2015JP001413 WO 2015151422 世界知的所有権機関(WIPO) SOLAR BATTERY AND SOLAR BATTERY PRODUCTION METHOD 2015/11/19 2015/11/19 科学技術振興機構(JST)
781 102127200 I489969 台湾 Point-of-gaze detection device, point-of-gaze detecting method, personal parameter calculating device, personal parameter calculating method, program, and computer-readable recording medium 2015/11/19 2015/11/19 科学技術振興機構(JST)
782 102128253 I545883 台湾 Spin motor and spin rotary member 2015/11/19 2016/09/01 科学技術振興機構(JST)
783 102140496 I545780 台湾 Spin valve element 2015/11/19 2016/09/01 科学技術振興機構(JST)
784 102128785 I581434 台湾 Self-spin polarization transistor device 2015/11/19 2017/05/17 科学技術振興機構(JST)
785 103136023 I591731 台湾 Semiconductor-substrate manufacturing method and semiconductor-device manufacturing method in which germanium layer is heat-treated 2015/11/19 2017/08/01 科学技術振興機構(JST)
786 102121892 I606058 台湾 Nucleic acid complex and nucleic acid-polysaccharide complex 2015/11/19 2017/12/07 科学技術振興機構(JST)
787 13164257 2668899 欧州特許庁(EPO) Method of and apparatus for measuring properties of an object with acoustically induced electromagnetic waves 2015/11/05 2015/11/05 科学技術振興機構(JST)
788 13164251 2630912 欧州特許庁(EPO) Method of and apparatus for measuring properties of an object with acoustically induced electromagnetic waves 2015/11/05 2015/11/05 科学技術振興機構(JST)
789 201313875198 9252020 アメリカ合衆国 Composite material, method of producing the same, and apparatus for producing the same 2015/11/05 2016/02/17 科学技術振興機構(JST)
790 2013JP059208 WO 2013146997 世界知的所有権機関(WIPO) URINARY BIOMARKER FOR USE IN TEST FOR PROSTATE CANCER 2015/11/05 2015/11/05 京都大学
791 2014JP074898 WO 2015041336 世界知的所有権機関(WIPO) HYDROPONIC METHOD UTILIZING BENEFICIAL MICRO-ORGANISMS 2015/11/05 2015/11/05 京都府立大学
792 2014JP065019 WO 2015033636 世界知的所有権機関(WIPO) METHOD FOR ANALYSIS FOR 3-HYDROXYPROLINE, METHOD FOR EXAMINING COLLAGEN, AND NOVEL Δ1-PYRROLINE-2-CARBOXYLIC ACID REDUCTASE FOR USE THEREIN 2015/11/05 2015/11/05 四国TLO
793 2014JP075000 WO 2015046100 世界知的所有権機関(WIPO) COMPOSITION AND METHOD FOR PRODUCING SAME 新技術説明会 2015/11/05 2015/11/05 岡山大学
794 2014JP004918 WO 2015045394 世界知的所有権機関(WIPO) SYMBOL RECOGNITION DEVICE AND TRAFFIC SIGN RECOGNITION DEVICE 2015/11/05 2015/11/05 広島大学
795 2014JP071727 WO 2015025869 世界知的所有権機関(WIPO) SOIL-BORNE DISEASE CONTROL AGENT AND SOIL-BORNE DISEASE CONTROL METHOD USING SAME 2015/11/05 2015/11/05 鹿児島大学
796 2014JP083247 WO 2015093472 世界知的所有権機関(WIPO) STRUCTURE FOR ANIMAL CELL, METHOD FOR SEPARATING ANIMAL CELL, AND METHOD FOR ADJUSTING ELASTICITY OF SURFACE OF STRUCTURE FOR ANIMAL CELL 2015/10/28 2015/11/06 科学技術振興機構(JST)
797 2014JP081649 WO 2015080275 世界知的所有権機関(WIPO) IMAGE PROCESSING DEVICE, IMAGE PROCESSING METHOD, AND RECORDING MEDIUM 2015/10/28 2015/11/06 情報・システム研究機構 国立情報学研究所
798 2014JP005744 WO 2015072152 世界知的所有権機関(WIPO) CARBON MONOXIDE POISONING RESOLVING DEVICE, JACKET FOR CARBON MONOXIDE POISONING TREATMENT HAVING SAID DEVICE, AND CATHETER FOR CARBON MONOXIDE POISONING TREATMENT 新技術説明会 2015/10/28 2015/11/06 聖マリアンナ医科大学
799 2014JP080485 WO 2015079975 世界知的所有権機関(WIPO) STATE MONITORING SYSTEM FOR EXERCISE DEVICES 2015/10/28 2015/11/06 山口大学
800 2014JP078751 WO 2015068623 世界知的所有権機関(WIPO) METHOD FOR EVALUATING RENIN ACTIVITY, METHOD FOR TESTING MORBIDITY POTENTIAL FOR PRIMARY ALDOSTERONISM, AND KIT USING SAME 新技術説明会 2015/10/28 2015/11/06 香川大学

(8/54ページ)

PAGE TOP